Fairchild AFB, WA

3:27 PM PST on December 10, 2016 (GMT -0800)
Fairchild Air Force Base

Weather History for KSKA - April, 2014

Change the Weather History Date:

Wednesday, April 23, 2014

  Actual Average Record
Temperature  
Mean Temperature 42 °F -  
Max Temperature 52 °F 57 °F 79 °F (2012)
Min Temperature 31 °F 35 °F 28 °F (2002)
Degree Days  
Heating Degree Days 24    
Moisture  
Dew Point 34 °F    
Average Humidity 77    
Maximum Humidity 100    
Minimum Humidity 41    
Precipitation  
Precipitation 0.00 in - - ()
Sea Level Pressure  
Sea Level Pressure 29.84 in    
Wind  
Wind Speed 13 mph (SSW)    
Max Wind Speed 26 mph    
Max Gust Speed 32 mph    
Visibility 10 miles    
Events Rain    
Averages and records for this station are not official NWS values.
T = Trace of Precipitation, MM = Missing Value Source: NWS Daily Summary

Daily Weather History Graph

Daily Weather History Graph

Search for Another Location

Airport or City:

Trip Planner

Search our weather history database for the weather conditions in past years. The results will help you decide how hot, cold, wet, or windy it might be!

Date:

Astronomy

Apr. 23, 2014 Rise Set
Actual Time 5:46 AM PDT 7:51 PM PDT
Civil Twilight 5:13 AM PDT 8:25 PM PDT
Nautical Twilight 4:32 AM PDT 9:06 PM PDT
Astronomical Twilight 3:46 AM PDT 9:52 PM PDT
Moon 2:47 AM PDT (4/23) 1:41 PM PDT (4/23)
Length of Visible Light 15h 11m
Length of Day
14h 04m
Waning Crescent, 34% of the Moon is Illuminated
Apr 23
Waning Crescent
Apr 28
New
May 6
First Quarter
May 14
Full
May 21
Last Quarter

Hourly Weather History & Observations

Time (PDT) Temp. Windchill Dew Point Humidity Pressure Visibility Wind Dir Wind Speed Gust Speed Precip Events Conditions
12:58 AM 34.2 °F 26.8 °F 25.2 °F 70% 29.86 in 10.0 mi South 9.2 mph - N/A   Clear
1:58 AM 33.3 °F 24.6 °F 27.7 °F 80% 29.87 in 10.0 mi South 11.5 mph - 0.00 in   Clear
2:58 AM 31.6 °F 23.7 °F 27.7 °F 85% 29.86 in 10.0 mi South 9.2 mph - 0.00 in   Clear
3:58 AM 32.2 °F 23.8 °F 29.8 °F 91% 29.86 in 10.0 mi SSW 10.4 mph - 0.00 in   Clear
4:22 AM 32.0 °F 23.6 °F 32.0 °F 100% 29.82 in 10.0 mi South 10.4 mph - N/A   Partly Cloudy
4:32 AM 32.0 °F 24.8 °F 32.0 °F 100% 29.82 in 10.0 mi SSW 8.1 mph - N/A   Clear
4:53 AM 32.0 °F 24.2 °F 32.0 °F 100% 29.82 in 10.0 mi South 9.2 mph - N/A   Partly Cloudy
4:54 AM 32.0 °F 24.2 °F 32.0 °F 100% 29.82 in 10.0 mi South 9.2 mph - N/A   Partly Cloudy
4:58 AM 33.3 °F 25.1 °F 31.5 °F 93% 29.86 in 10.0 mi South 10.4 mph - 0.00 in   Scattered Clouds
5:58 AM 34.2 °F 26.8 °F 32.4 °F 93% 29.87 in 10.0 mi South 9.2 mph - N/A   Overcast
6:00 AM 33.8 °F 25.8 °F 32.0 °F 93% 29.82 in 10.0 mi South 10.4 mph - N/A   Overcast
6:21 AM 33.8 °F 25.3 °F 32.0 °F 93% 29.82 in 10.0 mi South 11.5 mph - N/A   Overcast
6:58 AM 36.0 °F 28.0 °F 34.2 °F 93% 29.86 in 10.0 mi South 11.5 mph - 0.00 in   Overcast
7:05 AM 35.6 °F 27.1 °F 33.8 °F 93% 29.82 in 10.0 mi South 12.7 mph - N/A   Overcast
7:18 AM 35.6 °F 26.2 °F 33.8 °F 93% 29.82 in 10.0 mi SSW 15.0 mph - N/A   Overcast
7:20 AM 37.4 °F 29.3 °F 33.8 °F 87% 29.82 in 10.0 mi SSW 12.7 mph - N/A   Overcast
7:58 AM 37.6 °F 28.8 °F 34.5 °F 89% 29.88 in 10.0 mi SSW 15.0 mph - 0.00 in Rain Light Rain
8:13 AM 39.2 °F 30.5 °F 35.6 °F 87% 29.82 in 10.0 mi SSW 16.1 mph - N/A Rain Light Rain
8:18 AM 39.2 °F 30.8 °F 35.6 °F 87% 29.82 in 10.0 mi SSW 15.0 mph - N/A Rain Light Rain
8:28 AM 39.2 °F 30.5 °F 35.6 °F 87% 29.82 in 10.0 mi SSW 16.1 mph - N/A Rain Light Rain
8:48 AM 41.0 °F 35.2 °F 35.6 °F 81% 29.82 in 10.0 mi SSW 9.2 mph 20.7 mph N/A Rain Light Rain
8:52 AM 41.0 °F 34.3 °F 35.6 °F 81% 29.82 in 10.0 mi SSW 11.5 mph - N/A   Mostly Cloudy
8:58 AM 40.8 °F 32.6 °F 35.4 °F 81% 29.86 in 10.0 mi SSW 16.1 mph - 0.00 in   Mostly Cloudy
9:08 AM 41.0 °F 32.8 °F 35.6 °F 81% 29.82 in 10.0 mi SW 16.1 mph - N/A   Mostly Cloudy
9:18 AM 42.8 °F 34.5 °F 35.6 °F 76% 29.83 in 10.0 mi SSW 18.4 mph - N/A   Light Drizzle
9:28 AM 41.0 °F 32.5 °F 35.6 °F 81% 29.83 in 10.0 mi SW 17.3 mph 23.0 mph N/A   Light Drizzle
9:47 AM 42.8 °F 35.1 °F 35.6 °F 76% 29.83 in 10.0 mi SSW 16.1 mph - N/A   Overcast
9:52 AM 42.8 °F 34.8 °F 35.6 °F 76% 29.83 in 10.0 mi SSW 17.3 mph 21.9 mph N/A   Light Drizzle
9:58 AM 42.3 °F 34.8 °F 34.7 °F 75% 29.88 in 10.0 mi SW 15.0 mph 21.9 mph 0.00 in   Light Drizzle
10:13 AM 46.4 °F 38.7 °F 35.6 °F 66% 29.83 in 10.0 mi SW 20.7 mph - N/A   Light Drizzle
10:25 AM 44.6 °F 37.4 °F 35.6 °F 71% 29.82 in 10.0 mi SW 16.1 mph - N/A   Mostly Cloudy
10:40 AM 46.4 °F 39.2 °F 35.6 °F 66% 29.83 in 10.0 mi SW 18.4 mph 27.6 mph N/A   Mostly Cloudy
10:45 AM 46.4 °F 38.7 °F 35.6 °F 66% 29.83 in 10.0 mi SW 20.7 mph 27.6 mph N/A   Mostly Cloudy
10:58 AM 45.9 °F 38.3 °F 34.0 °F 63% 29.88 in 10.0 mi SW 19.6 mph - 0.00 in   Mostly Cloudy
11:13 AM 46.4 °F 39.2 °F 33.8 °F 62% 29.83 in 10.0 mi SW 18.4 mph 23.0 mph N/A   Mostly Cloudy
11:18 AM 46.4 °F 39.5 °F 33.8 °F 62% 29.82 in 10.0 mi SW 17.3 mph 23.0 mph N/A   Mostly Cloudy
11:23 AM 46.4 °F 39.0 °F 33.8 °F 62% 29.82 in 10.0 mi SW 19.6 mph 23.0 mph N/A   Mostly Cloudy
11:58 AM 47.8 °F - 33.3 °F 57% 29.87 in 10.0 mi SW 17.3 mph 26.5 mph N/A   Scattered Clouds
12:10 PM 50.0 °F - 32.0 °F 50% 29.82 in 10.0 mi SW 16.1 mph 26.5 mph N/A Rain Light Rain
12:17 PM 50.0 °F - 32.0 °F 50% 29.82 in 10.0 mi SW 18.4 mph - N/A   Partly Cloudy
12:58 PM 51.4 °F - 30.9 °F 45% 29.86 in 10.0 mi SW 23.0 mph 29.9 mph 0.00 in   Mostly Cloudy
1:58 PM 50.4 °F - 28.4 °F 43% 29.86 in 10.0 mi SW 23.0 mph 28.8 mph N/A   Overcast
2:58 PM 52.2 °F - 29.8 °F 42% 29.85 in 10.0 mi SW 26.5 mph 32.2 mph N/A   Partly Cloudy
3:58 PM 51.3 °F - 28.2 °F 41% 29.85 in 10.0 mi SW 23.0 mph 29.9 mph N/A   Mostly Cloudy
4:58 PM 50.7 °F - 29.5 °F 44% 29.86 in 10.0 mi SW 20.7 mph 27.6 mph N/A   Mostly Cloudy
5:58 PM 48.6 °F - 30.4 °F 50% 29.86 in 10.0 mi SSW 20.7 mph 25.3 mph N/A   Scattered Clouds
6:58 PM 45.9 °F 39.4 °F 35.2 °F 66% 29.88 in 10.0 mi SSW 15.0 mph - N/A   Partly Cloudy
7:58 PM 44.4 °F 38.6 °F 37.0 °F 75% 29.88 in 10.0 mi SSW 11.5 mph - N/A   Overcast
8:19 PM 42.8 °F 37.0 °F 37.4 °F 81% 29.83 in 10.0 mi South 10.4 mph - N/A   Mostly Cloudy
8:24 PM 42.8 °F 37.0 °F 37.4 °F 81% 29.83 in 10.0 mi SSW 10.4 mph - N/A   Mostly Cloudy
8:58 PM 42.1 °F 37.1 °F 37.0 °F 82% 29.87 in 10.0 mi South 8.1 mph - 0.00 in   Overcast
9:03 PM 41.0 °F 35.8 °F 37.4 °F 87% 29.83 in 10.0 mi South 8.1 mph - N/A   Overcast
9:26 PM 41.0 °F 35.2 °F 37.4 °F 87% 29.83 in 10.0 mi South 9.2 mph - N/A   Overcast
9:34 PM 41.0 °F 36.4 °F 37.4 °F 87% 29.83 in 10.0 mi SSE 6.9 mph - N/A   Overcast
9:58 PM 41.2 °F 36.0 °F 37.2 °F 86% 29.87 in 10.0 mi SSE 8.1 mph - 0.00 in   Overcast
10:57 PM 41.0 °F 35.8 °F 37.4 °F 87% 29.82 in 10.0 mi SE 8.1 mph - N/A   Scattered Clouds
10:58 PM 41.0 °F 36.4 °F 37.2 °F 86% 29.85 in 10.0 mi ESE 6.9 mph - N/A   Scattered Clouds
11:08 PM 41.0 °F 35.8 °F 37.4 °F 87% 29.82 in 10.0 mi SE 8.1 mph - N/A   Partly Cloudy
11:25 PM 41.0 °F 35.8 °F 37.4 °F 87% 29.82 in 10.0 mi SE 8.1 mph - N/A Rain Light Rain
11:58 PM 40.8 °F 36.2 °F 38.7 °F 92% 29.84 in 10.0 mi SSE 6.9 mph - 0.00 in Rain Light Rain